TimeCDT,TemperatureF,Dew PointF,Humidity,Sea Level PressureIn,VisibilityMPH,Wind Direction,Wind SpeedMPH,Gust SpeedMPH,PrecipitationIn,Events,Conditions,WindDirDegrees,DateUTC
12:56 AM,32.0,19.0,59,30.07,-9999.0,Calm,Calm,-,N/A,,Unknown,0,2012-10-31 05:56:00
1:56 AM,30.9,18.0,59,30.06,-9999.0,NNW,11.5,25.3,N/A,,Unknown,340,2012-10-31 06:56:00
2:56 AM,30.0,19.0,64,30.04,-9999.0,NNW,13.8,26.5,N/A,,Unknown,340,2012-10-31 07:56:00
3:56 AM,28.9,19.0,67,30.04,-9999.0,Variable,3.5,21.9,N/A,,Unknown,0,2012-10-31 08:56:00
4:56 AM,28.9,19.9,69,30.04,-9999.0,Calm,Calm,-,N/A,,Unknown,0,2012-10-31 09:56:00
5:56 AM,28.0,19.0,69,30.03,-9999.0,Variable,6.9,-,N/A,,Unknown,0,2012-10-31 10:56:00
6:56 AM,27.0,19.0,72,30.03,-9999.0,Calm,Calm,-,N/A,,Unknown,0,2012-10-31 11:56:00
7:56 AM,27.0,19.0,72,30.04,-9999.0,Calm,Calm,-,N/A,,Unknown,0,2012-10-31 12:56:00
8:56 AM,28.9,19.9,69,30.02,-9999.0,Calm,Calm,-,N/A,,Unknown,0,2012-10-31 13:56:00
9:56 AM,33.1,21.9,64,30.01,-9999.0,Calm,Calm,-,N/A,,Unknown,0,2012-10-31 14:56:00
10:56 AM,37.0,24.1,59,30.00,-9999.0,SW,5.8,-,N/A,,Unknown,230,2012-10-31 15:56:00
11:56 AM,37.0,25.0,62,29.99,-9999.0,SSW,5.8,-,N/A,,Unknown,210,2012-10-31 16:56:00
12:56 PM,37.0,27.0,67,29.97,-9999.0,SW,11.5,-,N/A,,Unknown,230,2012-10-31 17:56:00
1:56 PM,41.0,28.9,62,29.94,-9999.0,WSW,10.4,-,N/A,,Unknown,240,2012-10-31 18:56:00
2:56 PM,41.0,28.0,60,29.92,-9999.0,SSW,8.1,-,N/A,,Unknown,210,2012-10-31 19:56:00
3:56 PM,45.0,18.0,34,29.91,-9999.0,Variable,5.8,-,N/A,,Unknown,0,2012-10-31 20:56:00
4:56 PM,43.0,19.0,38,29.91,-9999.0,Variable,3.5,-,N/A,,Unknown,0,2012-10-31 21:56:00
5:56 PM,39.0,16.0,39,29.91,-9999.0,Calm,Calm,-,N/A,,Unknown,0,2012-10-31 22:56:00
6:56 PM,39.9,21.9,49,29.92,-9999.0,Variable,4.6,-,N/A,,Unknown,0,2012-10-31 23:56:00
7:56 PM,39.0,18.0,43,29.92,-9999.0,Calm,Calm,-,N/A,,Unknown,0,2012-11-01 00:56:00
8:56 PM,39.9,15.1,36,29.90,-9999.0,SW,3.5,-,N/A,,Unknown,220,2012-11-01 01:56:00
9:56 PM,39.9,19.0,43,29.89,-9999.0,Calm,Calm,-,N/A,,Unknown,0,2012-11-01 02:56:00
10:56 PM,39.9,16.0,38,29.89,-9999.0,Calm,Calm,-,N/A,,Unknown,0,2012-11-01 03:56:00
11:56 PM,39.0,19.0,45,29.88,-9999.0,Variable,3.5,-,N/A,,Unknown,0,2012-11-01 04:56:00